M I D A S
Marine Information and Data Acquisition System
Tripno 1575 of the Zeeleeuw from 2008-09-26 06:23:33 to 2008-09-26 16:00:25
Back to CruiseResearch ActivitiesStationsMapUnderway DataData graphs

EquipmentUnitsComment
TimeDGPSUTC
LatitudeDGPSDM.mWGS84
LongitudeDGPSDM.mWGS84
TemperatureSBE03/SBE38deg celciusITS90
ConductivitySBE21S/mITS90
SalinitySBE21 Practical Salinity Units
ChlorophylAChelsea fluorimeterg/lCalibrated in Aceton
Missing or incorrect values are displayed as -999
Sea surface data collected by the RV Zeeleeuw from 2008-09-26 06:23:33 to 2008-09-26 16:00:25
Time Latitude Longitude Temperature Conductivity Salinity ChlorophylA
2008-09-26 06:25:40 51°13.702 2°55.793 -999 -999 -999 -999
2008-09-26 06:27:40 51°13.835 2°55.65 -999 -999 -999 -999
2008-09-26 06:29:40 51°13.953 2°55.644 -999 -999 -999 -999
2008-09-26 06:31:40 51°14.072 2°55.456 -999 -999 -999 -999
2008-09-26 06:33:40 51°14.314 2°55.149 -999 -999 -999 -999
2008-09-26 06:35:40 51°14.38 2°54.668 -999 -999 -999 -999
2008-09-26 06:37:40 51°14.252 2°54.095 -999 -999 -999 -999
2008-09-26 06:39:40 51°14.074 2°53.517 -999 -999 -999 -999
2008-09-26 06:41:40 51°13.881 2°52.943 -999 -999 -999 -999
2008-09-26 06:43:40 51°13.744 2°52.55 -999 -999 -999 -999
2008-09-26 06:45:40 51°13.619 2°52.184 -999 -999 -999 -999
2008-09-26 06:47:40 51°13.454 2°51.776 -999 -999 -999 -999
2008-09-26 06:49:40 51°13.384 2°51.518 -999 -999 -999 -999
2008-09-26 06:51:40 51°13.39 2°51.402 -999 -999 -999 -999
2008-09-26 06:53:40 51°13.374 2°51.341 -999 -999 -999 -999
2008-09-26 06:55:40 51°13.349 2°51.278 -999 -999 -999 -999
2008-09-26 06:57:40 51°13.323 2°51.211 -999 -999 -999 -999
2008-09-26 06:59:40 51°13.231 2°50.872 -999 -999 -999 -999
2008-09-26 07:01:40 51°13.028 2°50.305 -999 -999 -999 -999
2008-09-26 07:03:40 51°12.835 2°49.725 -999 -999 -999 -999
2008-09-26 07:05:40 51°12.639 2°49.145 -999 -999 -999 -999
2008-09-26 07:07:40 51°12.456 2°48.555 -999 -999 -999 -999
2008-09-26 07:09:40 51°12.267 2°47.969 -999 -999 -999 -999
2008-09-26 07:11:40 51°12.101 2°47.365 -999 -999 -999 -999
2008-09-26 07:13:40 51°12.011 2°46.732 -999 -999 -999 -999
2008-09-26 07:15:40 51°11.913 2°46.11 -999 -999 -999 -999
2008-09-26 07:17:40 51°11.811 2°45.494 -999 -999 -999 -999
2008-09-26 07:19:40 51°11.708 2°44.883 -999 -999 -999 -999
2008-09-26 07:21:40 51°11.609 2°44.274 -999 -999 -999 -999
2008-09-26 07:23:40 51°11.518 2°43.665 -999 -999 -999 -999
2008-09-26 07:25:40 51°11.457 2°43.05 -999 -999 -999 -999
2008-09-26 07:27:40 51°11.349 2°42.492 -999 -999 -999 -999
2008-09-26 07:29:40 51°11.22 2°42.276 -999 -999 -999 -999
2008-09-26 07:31:40 51°11.138 2°42.184 -999 -999 -999 -999
2008-09-26 07:33:40 51°11.064 2°42.103 -999 -999 -999 -999
2008-09-26 07:35:40 51°11.024 2°42.062 -999 -999 -999 -999
2008-09-26 07:37:40 51°10.996 2°42.03 -999 -999 -999 -999
2008-09-26 07:39:40 51°10.948 2°41.982 -999 -999 -999 -999
2008-09-26 07:41:40 51°10.836 2°41.587 -999 -999 -999 -999
2008-09-26 07:43:40 51°10.766 2°40.983 -999 -999 -999 -999
2008-09-26 07:45:40 51°10.701 2°40.377 -999 -999 -999 -999
2008-09-26 07:47:40 51°10.637 2°39.772 -999 -999 -999 -999
2008-09-26 07:49:40 51°10.567 2°39.167 -999 -999 -999 -999
2008-09-26 07:51:40 51°10.496 2°38.555 -999 -999 -999 -999
2008-09-26 07:53:40 51°10.432 2°37.936 -999 -999 -999 -999
2008-09-26 07:55:40 51°10.372 2°37.313 -999 -999 -999 -999
2008-09-26 07:57:40 51°10.363 2°36.714 -999 -999 -999 -999
2008-09-26 07:59:40 51°10.632 2°36.384 -999 -999 -999 -999
2008-09-26 08:01:40 51°10.989 2°36.509 -999 -999 -999 -999
2008-09-26 08:03:40 51°11.355 2°36.64 -999 -999 -999 -999
2008-09-26 08:05:40 51°11.716 2°36.782 -999 -999 -999 -999
2008-09-26 08:07:40 51°12.077 2°36.921 -999 -999 -999 -999
2008-09-26 08:09:40 51°12.436 2°37.062 -999 -999 -999 -999
2008-09-26 08:11:40 51°12.809 2°37.154 -999 -999 -999 -999
2008-09-26 08:13:40 51°13.175 2°37.175 -999 -999 -999 -999
2008-09-26 08:15:40 51°13.537 2°37.131 -999 -999 -999 -999
2008-09-26 08:17:40 51°13.912 2°37.091 -999 -999 -999 -999
2008-09-26 08:19:40 51°14.287 2°37.051 -999 -999 -999 -999
2008-09-26 08:21:40 51°14.658 2°36.998 -999 -999 -999 -999
2008-09-26 08:23:40 51°15.029 2°36.956 -999 -999 -999 -999
2008-09-26 08:25:40 51°15.405 2°36.911 -999 -999 -999 -999
2008-09-26 08:27:40 51°15.778 2°36.861 -999 -999 -999 -999
2008-09-26 08:29:40 51°16.125 2°36.813 -999 -999 -999 -999
2008-09-26 08:31:40 51°16.407 2°36.799 -999 -999 -999 -999
2008-09-26 08:33:40 51°16.522 2°36.783 -999 -999 -999 -999
2008-09-26 08:35:40 51°16.58 2°36.769 -999 -999 -999 -999
2008-09-26 08:37:40 51°16.607 2°36.765 -999 -999 -999 -999
2008-09-26 08:39:40 51°16.619 2°36.757 -999 -999 -999 -999
2008-09-26 08:41:40 51°16.641 2°36.73 -999 -999 -999 -999
2008-09-26 08:43:40 51°16.817 2°36.42 -999 -999 -999 -999
2008-09-26 08:45:40 51°17.037 2°35.993 -999 -999 -999 -999
2008-09-26 08:47:40 51°17.251 2°35.571 -999 -999 -999 -999
2008-09-26 08:49:40 51°17.458 2°35.158 -999 -999 -999 -999
2008-09-26 08:51:40 51°17.661 2°34.741 -999 -999 -999 -999
2008-09-26 08:53:40 51°17.875 2°34.314 -999 -999 -999 -999
2008-09-26 08:55:40 51°18.094 2°33.884 -999 -999 -999 -999
2008-09-26 08:57:40 51°18.303 2°33.442 -999 -999 -999 -999
2008-09-26 08:59:40 51°18.508 2°32.994 -999 -999 -999 -999
2008-09-26 09:01:40 51°18.715 2°32.537 -999 -999 -999 -999
2008-09-26 09:03:40 51°18.925 2°32.078 -999 -999 -999 -999
2008-09-26 09:05:40 51°19.133 2°31.623 -999 -999 -999 -999
2008-09-26 09:07:40 51°19.345 2°31.186 -999 -999 -999 -999
2008-09-26 09:09:40 51°19.564 2°30.759 -999 -999 -999 -999
2008-09-26 09:11:40 51°19.774 2°30.352 -999 -999 -999 -999
2008-09-26 09:13:40 51°19.91 2°30.136 -999 -999 -999 -999
2008-09-26 09:15:40 51°19.995 2°30.046 -999 -999 -999 -999
2008-09-26 09:17:40 51°20.026 2°30.075 -999 -999 -999 -999
2008-09-26 09:19:40 51°20.044 2°30.124 -999 -999 -999 -999
2008-09-26 09:21:40 51°20.084 2°30.186 -999 -999 -999 -999
2008-09-26 09:23:40 51°20.024 2°30.448 -999 -999 -999 -999
2008-09-26 09:25:40 51°19.749 2°30.863 -999 -999 -999 -999
2008-09-26 09:27:40 51°19.468 2°31.269 -999 -999 -999 -999
2008-09-26 09:29:40 51°19.194 2°31.658 -999 -999 -999 -999
2008-09-26 09:31:40 51°18.914 2°32.027 -999 -999 -999 -999
2008-09-26 09:33:40 51°18.616 2°32.354 -999 -999 -999 -999
2008-09-26 09:35:40 51°18.314 2°32.675 -999 -999 -999 -999
2008-09-26 09:37:40 51°18.002 2°33.003 -999 -999 -999 -999
2008-09-26 09:39:40 51°17.692 2°33.339 -999 -999 -999 -999
2008-09-26 09:41:40 51°17.382 2°33.679 -999 -999 -999 -999
2008-09-26 09:43:40 51°17.07 2°34.011 -999 -999 -999 -999
2008-09-26 09:45:40 51°16.75 2°34.36 -999 -999 -999 -999
2008-09-26 09:47:40 51°16.419 2°34.701 -999 -999 -999 -999
2008-09-26 09:49:40 51°16.091 2°35.034 -999 -999 -999 -999
2008-09-26 09:51:40 51°15.774 2°35.357 -999 -999 -999 -999
2008-09-26 09:53:40 51°15.451 2°35.657 -999 -999 -999 -999
2008-09-26 09:55:40 51°15.131 2°35.946 -999 -999 -999 -999
2008-09-26 09:57:40 51°14.804 2°36.241 -999 -999 -999 -999
2008-09-26 09:59:40 51°14.47 2°36.524 -999 -999 -999 -999
2008-09-26 10:01:40 51°14.128 2°36.794 -999 -999 -999 -999
2008-09-26 10:03:40 51°13.771 2°36.998 -999 -999 -999 -999
2008-09-26 10:05:40 51°13.411 2°37.082 -999 -999 -999 -999
2008-09-26 10:07:40 51°13.051 2°37.049 -999 -999 -999 -999
2008-09-26 10:09:40 51°12.683 2°37.026 -999 -999 -999 -999
2008-09-26 10:11:40 51°12.32 2°36.969 -999 -999 -999 -999
2008-09-26 10:13:40 51°11.959 2°36.89 -999 -999 -999 -999
2008-09-26 10:15:40 51°11.599 2°36.801 -999 -999 -999 -999
2008-09-26 10:17:40 51°11.24 2°36.72 -999 -999 -999 -999
2008-09-26 10:19:40 51°10.886 2°36.645 -999 -999 -999 -999
2008-09-26 10:21:40 51°10.553 2°36.751 -999 -999 -999 -999
2008-09-26 10:23:40 51°10.433 2°37.334 -999 -999 -999 -999
2008-09-26 10:25:40 51°10.401 2°37.996 -999 -999 -999 -999
2008-09-26 10:27:40 51°10.352 2°38.654 -999 -999 -999 -999
2008-09-26 10:29:40 51°10.293 2°39.309 -999 -999 -999 -999
2008-09-26 10:31:40 51°10.241 2°39.977 -999 -999 -999 -999
2008-09-26 10:33:40 51°10.18 2°40.627 -999 -999 -999 -999
2008-09-26 10:35:40 51°10.127 2°41.266 -999 -999 -999 -999
2008-09-26 10:37:40 51°10.092 2°41.886 -999 -999 -999 -999
2008-09-26 10:39:40 51°10.073 2°42.298 -999 -999 -999 -999
2008-09-26 10:41:40 51°10.061 2°42.571 -999 -999 -999 -999
2008-09-26 10:43:40 51°10.065 2°42.761 -999 -999 -999 -999
2008-09-26 10:45:40 51°10.065 2°42.859 -999 -999 -999 -999
2008-09-26 10:47:40 51°10.061 2°42.921 -999 -999 -999 -999
2008-09-26 10:49:40 51°10.059 2°42.966 -999 -999 -999 -999
2008-09-26 10:51:40 51°10.059 2°43 -999 -999 -999 -999
2008-09-26 10:53:40 51°10.058 2°43.025 -999 -999 -999 -999
2008-09-26 10:55:40 51°10.058 2°43.048 -999 -999 -999 -999
2008-09-26 10:57:40 51°10.056 2°43.069 -999 -999 -999 -999
2008-09-26 10:59:40 51°10.002 2°42.889 -999 -999 -999 -999
2008-09-26 11:01:40 51°9.898 2°42.386 -999 -999 -999 -999
2008-09-26 11:03:40 51°9.88 2°41.849 -999 -999 -999 -999
2008-09-26 11:05:40 51°9.933 2°41.315 -999 -999 -999 -999
2008-09-26 11:07:40 51°10.102 2°40.835 -999 -999 -999 -999
2008-09-26 11:09:40 51°10.377 2°40.62 -999 -999 -999 -999
2008-09-26 11:11:40 51°10.685 2°41.023 -999 -999 -999 -999
2008-09-26 11:13:40 51°10.933 2°41.54 -999 -999 -999 -999
2008-09-26 11:15:40 51°11.166 2°42.056 -999 -999 -999 -999
2008-09-26 11:17:40 51°11.422 2°42.549 -999 -999 -999 -999
2008-09-26 11:19:40 51°11.719 2°42.961 -999 -999 -999 -999
2008-09-26 11:21:40 51°12.029 2°43.357 -999 -999 -999 -999
2008-09-26 11:23:40 51°12.304 2°43.811 -999 -999 -999 -999
2008-09-26 11:25:40 51°12.442 2°44.391 -999 -999 -999 -999
2008-09-26 11:27:40 51°12.568 2°44.975 -999 -999 -999 -999
2008-09-26 11:29:40 51°12.703 2°45.553 -999 -999 -999 -999
2008-09-26 11:31:40 51°12.834 2°46.134 -999 -999 -999 -999
2008-09-26 11:33:40 51°12.999 2°46.697 -999 -999 -999 -999
2008-09-26 11:35:40 51°13.202 2°47.23 -999 -999 -999 -999
2008-09-26 11:37:40 51°13.42 2°47.747 -999 -999 -999 -999
2008-09-26 11:39:40 51°13.637 2°48.27 -999 -999 -999 -999
2008-09-26 11:41:40 51°13.846 2°48.8 -999 -999 -999 -999
2008-09-26 11:43:40 51°14.057 2°49.33 -999 -999 -999 -999
2008-09-26 11:45:40 51°14.261 2°49.867 -999 -999 -999 -999
2008-09-26 11:47:40 51°14.449 2°50.416 -999 -999 -999 -999
2008-09-26 11:49:40 51°14.616 2°50.986 -999 -999 -999 -999
2008-09-26 11:51:40 51°14.783 2°51.55 -999 -999 -999 -999
2008-09-26 11:53:40 51°14.974 2°52.086 -999 -999 -999 -999
2008-09-26 11:55:40 51°15.199 2°52.594 -999 -999 -999 -999
2008-09-26 11:57:40 51°15.44 2°53.09 -999 -999 -999 -999
2008-09-26 11:59:40 51°15.692 2°53.573 -999 -999 -999 -999
2008-09-26 13:01:40 51°20.245 2°58.489 -999 -999 -999 -999
2008-09-26 13:03:40 51°20.372 2°59.088 -999 -999 -999 -999
2008-09-26 13:05:40 51°20.496 2°59.693 -999 -999 -999 -999
2008-09-26 13:07:40 51°20.626 3°0.284 -999 -999 -999 -999
2008-09-26 13:09:40 51°20.751 3°0.866 -999 -999 -999 -999
2008-09-26 13:11:40 51°20.874 3°1.458 -999 -999 -999 -999
2008-09-26 13:13:40 51°21.004 3°2.057 -999 -999 -999 -999
2008-09-26 13:15:40 51°21.142 3°2.646 -999 -999 -999 -999
2008-09-26 13:17:40 51°21.27 3°3.239 -999 -999 -999 -999
2008-09-26 13:19:40 51°21.395 3°3.829 -999 -999 -999 -999
2008-09-26 13:21:40 51°21.514 3°4.42 -999 -999 -999 -999
2008-09-26 13:23:40 51°21.624 3°5.009 -999 -999 -999 -999
2008-09-26 13:25:40 51°21.732 3°5.597 -999 -999 -999 -999
2008-09-26 13:27:40 51°21.833 3°6.187 -999 -999 -999 -999
2008-09-26 13:29:40 51°21.928 3°6.778 -999 -999 -999 -999
2008-09-26 13:31:40 51°21.984 3°7.388 -999 -999 -999 -999
2008-09-26 13:33:40 51°22.052 3°7.984 -999 -999 -999 -999
2008-09-26 13:35:40 51°22.118 3°8.588 -999 -999 -999 -999
2008-09-26 13:37:40 51°22.186 3°9.168 -999 -999 -999 -999
2008-09-26 13:39:40 51°22.249 3°9.757 -999 -999 -999 -999
2008-09-26 13:41:40 51°22.326 3°10.331 -999 -999 -999 -999
2008-09-26 13:43:40 51°22.394 3°10.875 -999 -999 -999 -999
2008-09-26 13:45:40 51°22.446 3°11.076 -999 -999 -999 -999
2008-09-26 13:47:40 51°22.464 3°11.122 -999 -999 -999 -999
2008-09-26 13:49:40 51°22.472 3°11.129 -999 -999 -999 -999
2008-09-26 13:51:40 51°22.481 3°11.113 -999 -999 -999 -999
2008-09-26 13:53:40 51°22.506 3°11.289 -999 -999 -999 -999
2008-09-26 13:55:40 51°22.52 3°11.803 -999 -999 -999 -999
2008-09-26 13:57:40 51°22.543 3°12.324 -999 -999 -999 -999
2008-09-26 13:59:40 51°22.564 3°12.82 -999 -999 -999 -999
2008-09-26 14:01:40 51°22.582 3°13.058 -999 -999 -999 -999
2008-09-26 14:03:40 51°22.591 3°13.127 -999 -999 -999 -999
2008-09-26 14:05:40 51°22.582 3°13.137 -999 -999 -999 -999
2008-09-26 14:07:40 51°22.577 3°13.138 -999 -999 -999 -999
2008-09-26 14:09:40 51°22.803 3°13.094 -999 -999 -999 -999
2008-09-26 14:11:40 51°23.165 3°12.85 -999 -999 -999 -999
2008-09-26 14:13:40 51°23.525 3°12.575 -999 -999 -999 -999
2008-09-26 14:15:40 51°23.89 3°12.315 -999 -999 -999 -999
2008-09-26 14:17:40 51°24.25 3°12.02 -999 -999 -999 -999
2008-09-26 14:19:40 51°24.607 3°11.698 -999 -999 -999 -999
2008-09-26 14:21:40 51°24.969 3°11.378 -999 -999 -999 -999
2008-09-26 14:23:40 51°25.292 3°10.958 -999 -999 -999 -999
2008-09-26 14:25:40 51°25.605 3°10.513 -999 -999 -999 -999
2008-09-26 14:27:40 51°25.892 3°10.026 -999 -999 -999 -999
2008-09-26 14:29:40 51°26.111 3°9.453 -999 -999 -999 -999
2008-09-26 14:31:40 51°26.313 3°8.87 -999 -999 -999 -999
2008-09-26 14:33:40 51°26.42 3°8.491 -999 -999 -999 -999
2008-09-26 14:35:40 51°26.467 3°8.305 -999 -999 -999 -999
2008-09-26 14:37:40 51°26.498 3°8.223 -999 -999 -999 -999
2008-09-26 14:39:40 51°26.518 3°8.161 -999 -999 -999 -999
2008-09-26 14:41:40 51°26.523 3°7.96 -999 -999 -999 -999
2008-09-26 14:43:40 51°26.307 3°7.577 -999 -999 -999 -999
2008-09-26 14:45:40 51°26.05 3°7.125 -999 -999 -999 -999
2008-09-26 14:47:40 51°25.796 3°6.653 -999 -999 -999 -999
2008-09-26 14:49:40 51°25.541 3°6.173 -999 -999 -999 -999
2008-09-26 14:51:40 51°25.294 3°5.668 -999 -999 -999 -999
2008-09-26 14:53:40 51°25.043 3°5.156 -999 -999 -999 -999
2008-09-26 14:55:40 51°24.788 3°4.641 -999 -999 -999 -999
2008-09-26 14:57:40 51°24.527 3°4.136 -999 -999 -999 -999
2008-09-26 14:59:40 51°24.27 3°3.62 -999 -999 -999 -999
2008-09-26 15:01:40 51°24.01 3°3.101 -999 -999 -999 -999
2008-09-26 15:03:40 51°23.746 3°2.573 -999 -999 -999 -999
2008-09-26 15:05:40 51°23.454 3°2.096 -999 -999 -999 -999
2008-09-26 15:07:40 51°23.166 3°1.617 -999 -999 -999 -999
2008-09-26 15:09:40 51°22.875 3°1.137 -999 -999 -999 -999
2008-09-26 15:11:40 51°22.575 3°0.667 -999 -999 -999 -999
2008-09-26 15:13:40 51°22.275 3°0.2 -999 -999 -999 -999
2008-09-26 15:15:40 51°21.973 2°59.739 -999 -999 -999 -999
2008-09-26 15:17:40 51°21.664 2°59.278 -999 -999 -999 -999
2008-09-26 15:19:40 51°21.359 2°58.797 -999 -999 -999 -999
2008-09-26 15:21:40 51°21.048 2°58.335 -999 -999 -999 -999
2008-09-26 15:23:40 51°20.726 2°57.899 -999 -999 -999 -999
2008-09-26 15:25:40 51°20.411 2°57.45 -999 -999 -999 -999
2008-09-26 15:27:40 51°20.092 2°57.01 -999 -999 -999 -999
2008-09-26 15:29:40 51°19.773 2°56.576 -999 -999 -999 -999
2008-09-26 15:31:40 51°19.452 2°56.127 -999 -999 -999 -999
2008-09-26 15:33:40 51°19.137 2°55.679 -999 -999 -999 -999
2008-09-26 15:35:40 51°18.811 2°55.246 -999 -999 -999 -999
2008-09-26 15:37:40 51°18.484 2°54.821 -999 -999 -999 -999
2008-09-26 15:39:40 51°18.162 2°54.384 -999 -999 -999 -999
2008-09-26 15:41:40 51°17.829 2°53.973 -999 -999 -999 -999
2008-09-26 15:43:40 51°17.489 2°53.564 -999 -999 -999 -999
2008-09-26 15:45:40 51°17.106 2°53.344 -999 -999 -999 -999
2008-09-26 15:47:40 51°16.741 2°53.567 -999 -999 -999 -999
2008-09-26 15:49:40 51°16.366 2°53.796 -999 -999 -999 -999
2008-09-26 15:51:40 51°15.992 2°54.022 -999 -999 -999 -999
2008-09-26 15:53:40 51°15.612 2°54.229 -999 -999 -999 -999
2008-09-26 15:55:40 51°15.239 2°54.444 -999 -999 -999 -999
2008-09-26 15:57:40 51°14.868 2°54.663 -999 -999 -999 -999
2008-09-26 15:59:40 51°14.49 2°54.863 -999 -999 -999 -999